DT_LEITURA;HR_LEITURA;MED-PressaoAtm[hPa];VAL-TempExt[oC];VAL-UmidExt[%UR];VAL-TempInt[oC];VAL-UmidInt[%UR];Dir-Vento[grau];Vel-Vento[m/s];Precipitação[mm/h]
06/08/2026;00:04:00;1011,1;;;20,0;82;19;2,4;0,0
06/08/2026;00:09:00;1011,1;;;20,0;82;19;2,4;0,0
06/08/2026;00:14:00;1011,0;;;19,9;82;22;3,1;0,0
06/08/2026;00:19:00;1010,9;;;19,9;82;24;3,8;0,0
06/08/2026;00:24:00;1010,8;;;19,9;82;22;3,4;0,0
06/08/2026;00:29:00;1010,7;;;19,9;82;26;4,0;0,0
06/08/2026;00:34:00;1010,7;;;19,9;82;28;4,1;0,0
06/08/2026;00:39:00;1010,7;;;19,9;82;23;3,9;0,0
06/08/2026;00:44:00;1010,6;;;19,9;82;22;3,1;0,0
06/08/2026;00:49:00;1010,7;;;19,8;82;22;2,7;0,0
06/08/2026;00:54:00;1010,7;;;19,8;82;23;3,1;0,0
06/08/2026;00:59:00;1010,7;;;19,8;82;23;3,3;0,0
06/08/2026;01:04:00;1010,6;;;19,8;82;23;3,2;0,0
06/08/2026;01:09:00;1010,6;;;19,8;82;23;3,0;0,0
06/08/2026;01:14:00;1010,6;;;19,8;82;25;3,3;0,0
06/08/2026;01:19:00;1010,6;;;19,8;82;14;2,4;0,0
06/08/2026;01:24:00;1010,6;;;19,9;82;7;1,7;0,0
06/08/2026;01:29:00;1010,7;;;19,9;82;339;1,5;0,0
06/08/2026;01:34:00;1010,7;;;19,9;82;300;1,5;0,0
06/08/2026;01:39:00;1010,6;;;19,9;82;303;1,0;0,0
06/08/2026;01:44:00;1010,5;;;19,9;82;296;0,8;0,0
06/08/2026;01:49:00;1010,5;;;19,9;82;287;0,9;0,0
06/08/2026;01:54:00;1010,5;;;19,8;82;286;0,6;0,0
06/08/2026;01:59:00;1010,4;;;19,8;82;202;0,4;0,0
06/08/2026;02:04:00;1010,3;;;19,8;82;265;0,4;0,0
06/08/2026;02:09:00;1010,2;;;19,8;82;229;0,4;0,0
06/08/2026;02:14:00;1010,1;;;19,8;82;183;0,4;0,0
06/08/2026;02:19:00;1010,1;;;19,8;82;244;0,5;0,0
06/08/2026;02:24:00;1010,0;;;19,8;82;237;0,4;0,0
06/08/2026;02:29:00;1010,0;;;19,8;82;145;0,5;0,0
06/08/2026;02:34:00;1009,9;;;19,8;82;120;0,6;0,0
06/08/2026;02:39:00;1009,8;;;19,7;82;115;0,7;0,0
06/08/2026;02:44:00;1009,6;;;19,7;82;122;0,6;0,0
06/08/2026;02:49:00;1009,5;;;19,7;82;94;0,6;0,0
06/08/2026;02:54:00;1009,4;;;19,7;82;8;0,5;0,0
06/08/2026;02:59:00;1009,4;;;19,7;82;1;0,5;0,0
06/08/2026;03:04:00;1009,4;;;19,7;82;25;0,5;0,0
06/08/2026;03:09:00;1009,4;;;19,7;82;334;0,5;0,0
06/08/2026;03:14:00;1009,4;;;19,6;82;38;0,2;0,0
06/08/2026;03:19:00;1009,4;;;19,6;82;329;0,3;0,0
06/08/2026;03:24:00;1009,4;;;19,6;82;320;0,5;0,0
06/08/2026;03:29:00;1009,4;;;19,6;82;282;0,3;0,0
06/08/2026;03:34:00;1009,3;;;19,6;82;151;0,5;0,0
06/08/2026;03:39:00;1009,3;;;19,6;82;200;0,4;0,0
06/08/2026;03:44:00;1009,2;;;19,6;82;145;0,5;0,0
06/08/2026;03:49:00;1009,1;;;19,6;82;152;0,8;0,0
06/08/2026;03:54:00;1009,1;;;19,6;82;144;0,9;0,0
06/08/2026;03:59:00;1009,0;;;19,5;82;158;0,8;0,0
06/08/2026;04:04:00;1009,0;;;19,4;82;166;0,8;0,0
06/08/2026;04:09:00;1008,9;;;19,3;82;193;0,8;0,0
06/08/2026;04:14:00;1008,9;;;19,2;82;214;0,8;0,0
06/08/2026;04:19:00;1008,7;;;19,1;82;144;0,7;0,0
06/08/2026;04:24:00;1008,6;;;19,0;82;127;0,8;0,0
06/08/2026;04:29:00;1008,5;;;19,0;82;117;0,7;0,0
06/08/2026;04:34:00;1008,4;;;18,9;82;129;0,5;0,0
06/08/2026;04:39:00;1008,4;;;18,9;82;119;0,6;0,0
06/08/2026;04:44:00;1008,4;;;18,8;82;139;0,7;0,0
06/08/2026;04:49:00;1008,3;;;18,7;82;113;0,7;0,0
06/08/2026;04:54:00;1008,3;;;18,7;82;137;0,6;0,0
06/08/2026;04:59:00;1008,4;;;18,6;82;133;0,5;0,0
06/08/2026;05:04:00;1008,3;;;18,5;83;141;0,6;0,0
06/08/2026;05:09:00;1008,2;;;18,5;83;136;0,6;0,0
06/08/2026;05:14:00;1008,3;;;18,4;83;185;0,6;0,0
06/08/2026;05:19:00;1008,3;;;18,4;83;50;0,5;0,0
06/08/2026;05:24:00;1008,3;;;18,4;83;346;0,7;0,0
06/08/2026;05:29:00;1008,3;;;18,4;83;289;0,6;0,0
06/08/2026;05:34:00;1008,3;;;18,4;83;74;0,5;0,0
06/08/2026;05:39:00;1008,2;;;18,4;83;68;0,7;0,0
06/08/2026;05:44:00;1008,2;;;18,4;83;51;0,9;0,0
06/08/2026;05:49:00;1008,2;;;18,3;83;31;0,6;0,0
06/08/2026;05:54:00;1008,2;;;18,2;83;109;0,8;0,0
06/08/2026;05:59:00;1008,2;;;18,2;83;61;1,0;0,0
06/08/2026;06:04:00;1008,3;;;18,2;83;24;1,3;0,0
06/08/2026;06:09:00;1008,4;;;18,2;83;21;1,1;0,0
06/08/2026;06:14:00;1008,4;;;18,2;83;289;1,1;0,0
06/08/2026;06:19:00;1008,4;;;18,2;83;359;0,8;0,0
06/08/2026;06:24:00;1008,4;;;18,2;83;348;0,5;0,0
06/08/2026;06:29:00;1008,4;;;18,1;83;27;0,6;0,0
06/08/2026;06:34:00;1008,4;;;18,1;83;20;0,5;0,0
06/08/2026;06:39:00;1008,4;;;18,0;83;126;0,5;0,0
06/08/2026;06:44:00;1008,4;;;18,0;83;286;0,5;0,0
06/08/2026;06:49:00;1008,5;;;17,9;83;204;0,7;0,0
06/08/2026;06:54:00;1008,6;;;17,9;83;134;1,1;0,0
06/08/2026;06:59:00;1008,6;;;17,9;83;53;0,5;0,0
06/08/2026;07:04:00;1008,7;;;17,8;83;84;0,3;0,0
06/08/2026;07:09:00;1008,9;;;17,8;83;156;0,6;0,0
06/08/2026;07:14:00;1008,8;;;17,8;83;137;0,6;0,0
06/08/2026;07:19:00;1008,7;;;17,7;83;172;0,8;0,0
06/08/2026;07:24:00;1008,6;;;17,8;83;171;1,2;0,0
06/08/2026;07:29:00;1008,5;;;17,7;83;206;0,7;0,0
06/08/2026;07:34:00;1008,5;;;17,8;83;157;0,4;0,0
06/08/2026;07:39:00;1008,4;;;17,8;83;54;0,9;0,0
06/08/2026;07:44:00;1008,4;;;17,8;83;70;0,9;0,0
06/08/2026;07:49:00;1008,5;;;17,8;84;91;1,0;0,0
06/08/2026;07:54:00;1008,5;;;17,9;84;80;1,1;0,0
06/08/2026;07:59:00;1008,4;;;17,9;84;34;1,2;0,0
06/08/2026;08:04:00;1008,4;;;18,0;84;34;1,0;0,0
06/08/2026;08:09:00;1008,4;;;18,1;84;30;1,7;0,0
06/08/2026;08:14:00;1008,5;;;18,2;84;16;1,1;0,0
06/08/2026;08:19:00;1008,6;;;18,3;85;45;0,7;0,0
06/08/2026;08:24:00;1008,7;;;18,5;85;45;0,8;0,0
06/08/2026;08:29:00;1008,7;;;18,6;85;129;0,8;0,0
06/08/2026;08:34:00;1008,5;;;18,8;85;91;0,9;0,0
06/08/2026;08:39:00;1008,5;;;18,9;85;72;0,8;0,0
06/08/2026;08:44:00;1008,4;;;19,1;85;97;1,0;0,0
06/08/2026;08:49:00;1008,4;;;19,3;84;26;1,2;0,0
06/08/2026;08:54:00;1008,6;;;19,4;85;32;1,0;0,0
06/08/2026;08:59:00;1008,7;;;19,6;85;12;1,3;0,0
06/08/2026;09:04:00;1008,8;;;19,8;85;15;1,3;0,0
06/08/2026;09:09:00;1008,7;;;20,0;85;30;1,0;0,0
06/08/2026;09:14:00;1008,7;;;20,2;85;12;0,9;0,0
06/08/2026;09:19:00;1008,6;;;20,5;85;94;1,0;0,0
06/08/2026;09:24:00;1008,5;;;20,6;84;69;1,1;0,0
06/08/2026;09:29:00;1008,7;;;20,8;84;42;1,3;0,0
06/08/2026;09:34:00;1008,6;;;20,9;83;55;1,6;0,0
06/08/2026;09:39:00;1008,5;;;21,0;83;57;1,9;0,0
06/08/2026;09:44:00;1008,5;;;21,0;83;43;1,8;0,0
06/08/2026;09:49:00;1008,5;;;21,1;83;34;2,4;0,0
06/08/2026;09:54:00;1008,5;;;21,2;83;38;2,5;0,0
06/08/2026;09:59:00;1008,6;;;21,3;84;34;2,2;0,0
06/08/2026;10:04:00;1008,6;;;21,4;84;21;2,2;0,0
06/08/2026;10:09:00;1008,6;;;21,5;84;20;1,9;0,0
06/08/2026;10:14:00;1008,5;;;21,6;84;35;1,6;0,0
06/08/2026;10:19:00;1008,4;;;21,7;83;29;1,8;0,0
06/08/2026;10:24:00;1008,3;;;21,7;83;42;1,9;0,0
06/08/2026;10:29:00;1008,3;;;21,8;83;30;1,6;0,0
06/08/2026;10:34:00;1008,4;;;21,8;83;30;1,8;0,0
06/08/2026;10:39:00;1008,5;;;21,8;83;27;2,4;0,0
06/08/2026;10:44:00;1008,6;;;21,8;83;30;2,3;0,0
06/08/2026;10:49:00;1008,5;;;21,8;83;32;2,3;0,0
06/08/2026;10:54:00;1008,3;;;21,8;83;33;2,1;0,0
06/08/2026;10:59:00;1008,3;;;21,9;83;30;1,9;0,0
06/08/2026;11:04:00;1008,2;;;21,9;83;32;1,6;0,0
06/08/2026;11:09:00;1008,1;;;21,9;83;28;1,7;0,0
06/08/2026;11:14:00;1008,0;;;21,9;84;21;1,6;0,0
06/08/2026;11:19:00;1007,9;;;22,0;84;30;1,5;0,0
06/08/2026;11:24:00;1007,7;;;22,1;84;29;2,3;0,0
06/08/2026;11:29:00;1007,6;;;22,2;84;33;2,3;0,0
06/08/2026;11:34:00;1007,5;;;22,3;84;34;2,2;0,0
06/08/2026;11:39:00;1007,3;;;22,4;84;19;1,8;0,0
06/08/2026;11:44:00;1007,2;;;22,5;84;26;2,7;0,0
06/08/2026;11:49:00;1007,1;;;22,6;84;33;2,8;0,0
06/08/2026;11:54:00;1007,1;;;22,7;84;32;2,6;0,0
06/08/2026;11:59:00;1007,0;;;22,8;84;30;2,3;0,0
06/08/2026;12:04:00;1007,0;;;22,8;84;31;2,3;0,0
06/08/2026;12:09:00;1007,1;;;22,9;84;36;2,7;0,0
06/08/2026;12:14:00;1007,1;;;22,9;83;35;2,6;0,0
06/08/2026;12:19:00;1007,1;;;22,9;83;38;2,1;0,0
06/08/2026;12:24:00;1007,2;;;22,9;84;44;1,8;0,0
06/08/2026;12:29:00;1007,1;;;23,0;84;59;2,1;0,0
06/08/2026;12:34:00;1006,9;;;23,1;83;62;2,7;0,0
06/08/2026;12:39:00;1006,8;;;23,1;83;55;2,6;0,0
06/08/2026;12:44:00;1006,8;;;23,1;83;55;2,5;0,0
06/08/2026;12:49:00;1006,6;;;23,0;83;40;2,0;0,0
06/08/2026;12:54:00;1006,5;;;23,0;83;38;1,9;0,0
06/08/2026;12:59:00;1006,3;;;23,0;83;49;2,0;0,0
06/08/2026;13:04:00;1006,3;;;23,0;83;55;2,1;0,0
06/08/2026;13:09:00;1006,2;;;23,0;83;64;2,0;0,0
06/08/2026;13:14:00;1006,0;;;22,9;83;61;1,9;0,0
06/08/2026;13:19:00;1005,9;;;22,9;83;53;2,0;0,0
06/08/2026;13:24:00;1005,9;;;22,8;83;45;1,6;0,0
06/08/2026;13:29:00;1005,9;;;22,8;83;56;1,6;0,0
06/08/2026;13:34:00;1005,9;;;22,8;83;54;1,1;0,0
06/08/2026;13:39:00;1005,7;;;22,7;83;62;1,2;0,0
06/08/2026;13:44:00;1005,6;;;22,7;83;49;1,6;0,0
06/08/2026;13:49:00;1005,6;;;22,6;82;45;1,5;0,0
06/08/2026;13:54:00;1005,6;;;22,6;83;40;1,4;0,0
06/08/2026;13:59:00;1005,6;;;22,5;82;14;1,5;0,0
06/08/2026;14:04:00;1005,8;;;22,5;82;21;1,7;0,0
06/08/2026;14:09:00;1006,0;;;22,5;82;15;1,7;0,0
06/08/2026;14:14:00;1006,1;;;22,4;82;11;1,8;0,0
06/08/2026;14:19:00;1006,1;;;22,4;82;23;2,9;0,0
06/08/2026;14:24:00;1006,1;;;22,3;82;17;2,5;0,0
06/08/2026;14:29:00;1006,0;;;22,3;82;15;2,1;0,0
06/08/2026;14:34:00;1005,8;;;22,3;83;13;2,5;0,0
06/08/2026;14:39:00;1006,1;;;22,2;83;27;1,9;0,0
06/08/2026;14:44:00;1006,5;;;22,3;83;347;1,6;0,0
06/08/2026;14:49:00;1006,4;;;22,3;83;338;1,6;0,0
06/08/2026;14:54:00;1006,4;;;22,4;83;325;1,6;0,0
06/08/2026;14:59:00;1006,4;;;22,4;83;323;1,1;0,0
06/08/2026;15:04:00;1006,4;;;22,5;83;320;0,8;0,0
06/08/2026;15:09:00;1006,4;;;22,6;83;106;0,6;0,0
06/08/2026;15:14:00;1006,1;;;22,6;83;7;0,6;0,0
06/08/2026;15:19:00;1005,9;;;22,7;82;301;0,7;0,0
06/08/2026;15:24:00;1005,7;;;22,7;82;261;2,1;0,0
06/08/2026;15:29:00;1005,4;;;22,7;82;267;2,1;0,0
06/08/2026;15:34:00;1005,1;;;22,8;83;335;1,8;0,0
06/08/2026;15:39:00;1004,5;;;22,9;83;4;2,3;0,0
06/08/2026;15:44:00;1004,1;;;22,9;83;11;3,4;0,0
06/08/2026;15:49:00;1004,3;;;23,0;83;312;1,6;0,0
06/08/2026;15:54:00;1004,3;;;23,1;82;252;3,5;0,0
06/08/2026;15:59:00;1004,3;;;23,2;82;260;3,2;0,0
06/08/2026;16:04:00;1004,3;;;23,2;82;270;3,4;0,0
06/08/2026;16:09:00;1004,1;;;23,3;82;257;3,0;0,0
06/08/2026;16:14:00;1003,9;;;23,3;82;289;1,7;0,0
06/08/2026;16:19:00;1003,8;;;23,4;82;178;1,0;0,0
06/08/2026;16:24:00;1003,8;;;23,4;82;119;1,0;0,0
06/08/2026;16:29:00;1003,7;;;23,4;81;175;2,1;0,0
06/08/2026;16:34:00;1003,6;;;23,3;81;185;2,8;0,0
06/08/2026;16:39:00;1003,4;;;23,3;81;208;2,2;0,0
06/08/2026;16:44:00;1003,4;;;23,2;81;208;2,5;0,0
06/08/2026;16:49:00;1003,4;;;23,2;81;202;2,0;0,0
06/08/2026;16:54:00;1003,4;;;23,2;81;221;1,5;0,0
06/08/2026;16:59:00;1003,4;;;23,2;81;192;1,7;0,0
06/08/2026;17:04:00;1003,2;;;23,1;81;191;1,4;0,0
06/08/2026;17:09:00;1003,1;;;23,1;81;37;0,8;0,0
06/08/2026;17:14:00;1002,9;;;23,1;81;151;0,9;0,0
06/08/2026;17:19:00;1003,0;;;23,0;80;162;1,4;0,0
06/08/2026;17:24:00;1003,0;;;22,9;80;134;1,3;0,0
06/08/2026;17:29:00;1003,0;;;22,8;80;114;1,1;0,0
06/08/2026;17:34:00;1003,1;;;22,6;80;82;1,8;0,0
06/08/2026;17:39:00;1003,4;;;22,5;81;64;3,6;0,0
06/08/2026;17:44:00;1003,8;;;22,5;81;50;4,0;0,0
06/08/2026;17:49:00;1003,8;;;22,5;81;58;1,6;0,0
06/08/2026;17:54:00;1004,0;;;22,5;81;35;2,8;0,0
06/08/2026;17:59:00;1004,0;;;22,4;81;24;3,2;0,0
06/08/2026;18:04:00;1003,9;;;22,4;81;31;2,6;0,0
06/08/2026;18:09:00;1004,0;;;22,4;81;33;3,7;0,0
06/08/2026;18:14:00;1004,1;;;22,3;81;32;3,7;0,0
06/08/2026;18:19:00;1004,1;;;22,3;81;40;4,6;0,0
06/08/2026;18:24:00;1004,0;;;22,3;81;41;4,0;0,0
06/08/2026;18:29:00;1004,0;;;22,1;81;42;3,1;0,0
06/08/2026;18:34:00;1004,0;;;22,0;81;38;2,4;0,0
06/08/2026;18:39:00;1004,1;;;21,9;81;44;2,4;0,0
06/08/2026;18:44:00;1004,2;;;21,8;81;3;1,3;0,0
06/08/2026;18:49:00;1004,2;;;21,7;81;360;1,2;0,0
06/08/2026;18:54:00;1004,1;;;21,6;81;38;1,3;0,0
06/08/2026;18:59:00;1004,0;;;21,5;81;28;1,4;0,0
06/08/2026;19:04:00;1003,9;;;21,4;81;65;0,9;0,0
06/08/2026;19:09:00;1003,7;;;21,3;81;31;1,0;0,0
06/08/2026;19:14:00;1003,7;;;21,2;81;38;1,5;0,0
06/08/2026;19:19:00;1003,8;;;21,2;82;40;1,4;0,0
06/08/2026;19:24:00;1003,6;;;21,1;82;11;1,4;0,0
06/08/2026;19:29:00;1003,7;;;21,1;82;37;1,5;0,0
06/08/2026;19:34:00;1003,6;;;21,0;82;22;1,3;0,0
06/08/2026;19:39:00;1003,5;;;21,0;82;30;0,7;0,0
06/08/2026;19:44:00;1003,5;;;21,0;82;95;0,5;0,0
06/08/2026;19:49:00;1003,4;;;20,9;81;54;1,1;0,0
06/08/2026;19:54:00;1003,3;;;20,8;81;59;1,3;0,0
06/08/2026;19:59:00;1003,2;;;20,7;82;47;1,5;0,0
06/08/2026;20:04:00;1003,1;;;20,7;82;42;1,5;0,0
06/08/2026;20:09:00;1003,1;;;20,7;82;49;1,3;0,0
06/08/2026;20:14:00;1003,0;;;20,6;82;45;1,9;0,0
06/08/2026;20:19:00;1002,8;;;20,6;82;40;1,6;0,0
06/08/2026;20:24:00;1002,5;;;20,6;82;44;1,8;0,0
06/08/2026;20:29:00;1002,3;;;20,6;82;49;1,6;0,0
06/08/2026;20:34:00;1002,1;;;20,6;82;49;1,9;0,0
06/08/2026;20:39:00;1001,9;;;20,7;82;36;2,2;0,0
06/08/2026;20:44:00;1001,7;;;20,7;82;52;1,4;0,0
06/08/2026;20:49:00;1001,6;;;20,7;82;57;1,7;0,0
06/08/2026;20:54:00;1001,4;;;20,7;81;40;1,1;0,0
06/08/2026;20:59:00;1001,2;;;20,8;81;59;1,2;0,0
06/08/2026;21:04:00;1001,1;;;20,8;81;67;1,8;0,0
06/08/2026;21:09:00;1001,2;;;20,8;82;70;3,1;0,0
06/08/2026;21:14:00;1001,2;;;20,9;82;71;2,7;0,0
06/08/2026;21:19:00;1001,1;;;20,9;82;92;3,7;0,0
06/08/2026;21:24:00;1001,1;;;21,0;82;65;3,2;0,0
06/08/2026;21:29:00;1001,0;;;21,2;82;47;2,2;0,0
06/08/2026;21:34:00;1001,0;;;21,3;82;72;3,6;0,0
06/08/2026;21:39:00;1001,0;;;21,4;82;58;2,6;0,0
06/08/2026;21:44:00;1000,9;;;21,5;82;63;2,3;0,0
06/08/2026;21:49:00;1000,8;;;21,7;82;132;1,6;0,0
06/08/2026;21:54:00;1000,8;;;21,8;81;101;1,4;0,0
06/08/2026;21:59:00;1000,9;;;21,8;80;91;2,0;0,0
06/08/2026;22:04:00;1001,0;;;21,8;80;123;0,8;0,0
06/08/2026;22:09:00;1000,9;;;21,7;80;128;1,6;0,0
06/08/2026;22:14:00;1001,2;;;21,6;80;111;1,4;0,0
06/08/2026;22:19:00;1001,2;;;21,6;80;62;1,8;0,0
06/08/2026;22:24:00;1001,3;;;21,6;81;35;2,2;0,0
06/08/2026;22:29:00;1001,5;;;21,7;82;22;2,1;0,0
06/08/2026;22:34:00;1001,7;;;21,9;82;24;1,8;0,0
06/08/2026;22:39:00;1001,5;;;22,1;82;5;1,8;0,0
06/08/2026;22:44:00;1001,6;;;22,3;82;11;2,0;0,0
06/08/2026;22:49:00;1001,7;;;22,5;81;9;1,6;0,0
06/08/2026;22:54:00;1002,0;;;22,6;81;25;1,1;0,0
06/08/2026;22:59:00;1002,1;;;22,8;81;51;1,6;0,0
06/08/2026;23:04:00;1002,5;;;22,9;81;43;1,6;0,0
06/08/2026;23:09:00;1002,7;;;23,1;80;56;1,3;0,0
06/08/2026;23:14:00;1002,6;;;23,1;80;94;0,8;0,0
06/08/2026;23:19:00;1002,6;;;23,1;79;138;1,1;0,0
06/08/2026;23:24:00;1002,7;;;23,1;79;81;0,8;0,0
06/08/2026;23:29:00;1003,1;;;22,9;79;7;1,1;0,0
06/08/2026;23:34:00;1003,1;;;22,9;79;71;1,1;0,0
06/08/2026;23:39:00;1003,6;;;22,8;79;190;1,7;0,0
06/08/2026;23:44:00;1003,8;;;22,8;80;183;2,5;0,0
06/08/2026;23:49:00;1004,0;;;22,9;80;215;1,5;0,0
06/08/2026;23:54:00;1004,8;;;22,8;79;212;2,3;0,2
06/08/2026;23:59:00;1005,2;;;22,7;78;204;3,0;0,2
